[[{"header":{"parameterUnit":"m.s-1","parameterCategory":1,"la1":30.2991,"la2":30.254,"lo1":-89.0895,"lo2":-89.0444,"dy":0.0017,"dx":0.0017,"nx":28,"ny":28,"refTime":"2024-08-01T21:00:00:Z","depth":0,"parameterNumber":2,"parameterNumberName":"U-component_of_WINDS"},"data":[0,0,0,0,0,0,0,0,0,0,0,0,0,0,0,0,0,0,0,0,0,0,0,0,0,0,0,0,0,0,0,0,0,0,0,0,0,0,0,0,0,0,0,0,0,0,0,0,0,0,0,0,0,0,0,0,0,0,5.2184,5.2185,0,5.2327,5.2329,5.233,5.2221,5.2216,5.2211,5.2207,5.2358,5.2367,5.2375,0,0,0,0,0,0,0,0,0,0,0,0,0,5.1819,5.1826,5.2184,5.2185,5.2187,5.2327,5.2329,5.2331,5.2221,5.2216,5.221,5.2204,5.2356,5.2366,5.2376,0,0,0,0,0,0,0,0,0,0,0,0,0,5.1972,5.1829,5.2183,5.2149,5.2148,5.2326,5.2329,5.2331,5.2223,5.2215,5.2208,5.2202,5.2352,5.2365,5.2377,5.2598,0,0,5.2416,5.2421,0,0,0,0,0,0,0,0,5.1963,5.1985,5.2153,5.2152,5.2151,5.2248,5.2256,5.2421,5.2224,5.2194,5.2206,5.2198,5.2328,5.2342,5.2385,5.2605,5.2612,5.2417,5.2425,5.243,5.2434,0,0,0,0,0,0,0,5.1953,5.1978,5.224,5.2155,5.2154,5.2128,5.2142,5.2286,5.23,5.2196,5.2189,5.2207,5.2326,5.2373,5.2388,5.2614,5.2417,5.2428,5.2436,5.2441,5.3022,5.303,0,0,0,0,0,0,5.1945,5.197,5.2236,5.2245,5.2037,5.2141,5.2156,5.2224,5.2298,5.2302,5.2213,5.2201,5.2355,5.2373,5.2393,5.2655,5.243,5.2442,5.2449,5.3014,5.3024,5.3032,0,0,0,0,0,0,5.1937,5.1969,5.223,5.2105,5.2137,5.2154,5.2232,5.2231,5.2278,5.231,5.2312,5.2258,5.235,5.2375,5.2547,5.2659,5.2448,5.2459,5.3005,5.3017,5.3028,5.3183,0,0,0,0,0,0,5.1927,5.1967,5.2051,5.2108,5.2144,5.2382,5.2239,5.2239,5.2299,5.2285,5.2353,5.2358,5.2346,5.2529,5.256,5.2673,5.2469,5.2995,5.3011,5.3024,5.3168,5.3199,5.3225,0,0,0,0,0,5.1915,5.209,5.2056,5.2088,5.2248,5.2389,5.2409,5.2391,5.2309,5.2393,5.2414,5.2355,5.2642,5.2548,5.2582,5.27,5.2988,5.3006,5.3023,5.3155,5.3193,5.3224,0,0,0,0,0,0,5.2048,5.2097,5.2059,5.2258,5.232,5.237,5.2476,5.2431,5.2519,5.2502,5.2477,5.2494,5.2675,5.2705,5.2599,5.2917,5.2802,5.2827,5.2891,5.2926,5.2954,5.2943,5.248,0,0,0,0,0,5.21,5.2208,5.2246,5.2418,5.2451,5.2459,5.2519,5.2499,5.2563,5.2589,5.2622,5.2687,5.2791,5.286,5.2958,5.3172,5.3185,5.327,5.3298,5.3321,5.3343,5.3457,5.3495,5.309,5.309,5.309,0,0,5.221,5.225,5.232,5.2446,5.2491,5.2605,5.2481,5.2607,5.2691,5.2608,5.2772,5.2799,5.287,5.3064,5.3151,5.3094,5.3458,5.3344,5.3362,5.3372,5.3479,5.3518,5.3552,5.3102,5.31,5.3098,0,0,5.2467,5.2509,5.2656,5.2703,5.2772,5.2776,5.2812,5.2868,5.2882,5.3046,5.2986,5.3086,5.3267,5.3319,5.337,5.3646,5.3595,5.3679,5.3827,5.3938,5.397,5.3998,5.4096,5.4132,5.3701,5.3701,5.3702,0,5.2595,5.2762,5.2738,5.2868,5.2924,5.2852,5.3001,5.3049,5.3148,5.319,5.3125,5.3348,5.3391,5.3595,5.3662,5.3706,5.3746,5.3671,5.3967,5.3995,5.4021,5.4114,5.4151,5.3711,5.371,5.3709,5.3708,0,5.2916,5.3033,5.3144,5.3238,5.3308,5.3447,5.3444,5.3518,5.3493,5.3503,5.3671,5.372,5.3825,5.3872,5.385,5.4074,5.4036,5.397,5.3854,5.407,5.4157,5.4192,5.3725,5.3721,5.3718,5.3716,0,0,5.3261,5.3339,5.338,5.3422,5.3493,5.3583,5.372,5.3821,5.3884,5.3955,5.4068,5.4222,5.4161,5.4218,5.42,5.4298,5.4513,5.422,5.4221,5.4272,5.4761,5.481,5.4852,5.4479,5.4486,5.4492,5.4755,0,5.3521,5.3756,5.3737,5.3959,5.4067,5.4,5.4118,5.4175,5.4189,5.4283,5.4298,5.4407,5.4318,5.4352,5.4446,5.4467,5.4611,5.4448,5.4585,5.459,5.4568,5.4897,5.4949,5.5195,5.4789,5.4795,5.4799,0,5.3856,5.3935,5.4168,5.4221,5.4266,5.4372,5.4463,5.4554,5.4617,5.462,5.4683,5.4649,5.4786,5.4667,5.4857,5.4746,5.4801,5.482,5.4829,5.4841,5.4707,5.4917,5.5274,5.531,5.4852,5.4848,5.4844,0,5.4083,5.4249,5.4409,5.4447,5.4513,5.459,5.4621,5.4677,5.4739,5.4819,5.4859,5.4955,5.5007,5.5083,5.5075,5.4989,5.5268,5.5148,5.5274,5.5275,5.5335,5.5332,5.5705,5.5373,5.5372,5.5372,5.5371,0,5.4375,5.452,5.4512,5.461,5.477,5.4748,5.4907,5.493,5.498,5.5082,5.5031,5.5129,5.5113,5.5211,5.5206,5.5363,5.5388,5.5394,5.5391,5.5398,5.5398,5.5434,5.5416,5.5381,5.5379,5.5377,5.5376,0,5.4656,5.4657,5.4826,5.4875,5.489,5.5006,5.5047,5.5141,5.5149,5.528,5.5309,5.5323,5.5436,5.5435,5.5565,5.5561,5.5753,5.5731,5.5731,5.5726,5.5852,5.584,5.6261,5.6315,5.5949,5.5952,5.5955,0,5.4842,5.4951,5.501,5.5074,5.511,5.5214,5.5276,5.5258,5.5325,5.5404,5.5489,5.5595,5.568,5.5862,5.5885,5.5983,5.5963,5.6104,5.5977,5.598,5.5963,5.5957,5.5967,5.6128,5.6132,5.6136,5.6139,0,5.5171,5.5165,5.5256,5.5347,5.5422,5.5494,5.556,5.5615,5.5605,5.5683,5.5796,5.5861,5.5991,5.6098,5.6193,5.6226,5.6181,5.6178,5.6212,5.622,5.6215,5.6218,5.5798,5.6168,5.6165,5.6163,5.6162,5.616,5.5409,5.5503,5.5558,5.5661,5.5708,5.577,5.586,5.5879,5.5972,5.6075,5.606,5.6186,5.6245,5.6367,5.6408,5.6507,5.6458,5.6508,5.652,5.6533,5.6546,5.62,5.6525,5.6524,5.6523,5.6522,5.6522,0,5.5735,5.5767,5.5861,5.5953,5.6034,5.5983,5.6053,5.6124,5.6235,5.6294,5.6377,5.6507,5.661,5.664,5.674,5.6813,5.6795,5.684,5.6834,5.6842,5.6585,5.6544,5.6852,5.6852,5.6852,5.6852,5.6852,5.6852,5.5913,5.6068,5.6069,5.6247,5.6278,5.64,5.6444,5.6501,5.6547,5.6693,5.6778,5.6796,5.6844,5.6946,5.7038,5.7044,5.7083,5.7136,5.7134,5.6893,5.686,5.6828,5.679,5.7145,5.7145,5.7383,5.7385,5.7387]},{"header":{"parameterUnit":"m.s-1","parameterCategory":1,"la1":30.2991,"la2":30.254,"lo1":-89.0895,"lo2":-89.0444,"dy":0.0017,"dx":0.0017,"nx":28,"ny":28,"refTime":"2024-08-01T21:00:00:Z","depth":0,"parameterNumber":3,"parameterNumberName":"V-component_of_WINDS"},"data":[0,0,0,0,0,0,0,0,0,0,0,0,0,0,0,0,0,0,0,0,0,0,0,0,0,0,0,0,0,0,0,0,0,0,0,0,0,0,0,0,0,0,0,0,0,0,0,0,0,0,0,0,0,0,0,0,0,0,1.9705,1.9705,0,1.9782,1.9783,1.9784,1.9789,1.9788,1.9787,1.9787,1.9864,1.9867,1.987,0,0,0,0,0,0,0,0,0,0,0,0,0,1.956,1.9562,1.9705,1.9706,1.9707,1.9782,1.9783,1.9784,1.9789,1.9788,1.9787,1.9786,1.9863,1.9867,1.987,0,0,0,0,0,0,0,0,0,0,0,0,0,1.9628,1.9563,1.9704,1.9718,1.972,1.9781,1.9783,1.9784,1.9789,1.9788,1.9787,1.9786,1.9862,1.9866,1.987,1.9923,0,0,1.9884,1.9885,0,0,0,0,0,0,0,0,1.9624,1.9634,1.9715,1.9717,1.972,1.9775,1.976,1.983,1.979,1.9763,1.9786,1.9785,1.9835,1.9842,1.9859,1.9926,1.9929,1.9884,1.9887,1.9888,1.989,0,0,0,0,0,0,0,1.962,1.963,1.9735,1.9716,1.9719,1.972,1.9728,1.9773,1.9805,1.9765,1.9766,1.9775,1.9836,1.9855,1.9861,1.9931,1.9884,1.9888,1.989,1.9892,2.0043,2.0044,0,0,0,0,0,0,1.9613,1.9626,1.9733,1.9737,1.9668,1.9724,1.9733,1.9758,1.9805,1.9811,1.9776,1.9775,1.9848,1.9856,1.9863,1.9927,1.9888,1.9892,1.9895,2.0042,2.0043,2.0045,0,0,0,0,0,0,1.9609,1.9622,1.973,1.9682,1.9696,1.9727,1.9756,1.976,1.9779,1.9813,1.9819,1.9789,1.9847,1.9857,1.9908,1.993,1.9894,1.9898,2.004,2.0042,2.0044,2.0054,0,0,0,0,0,0,1.9605,1.9621,1.9642,1.9683,1.9698,1.9773,1.9757,1.9763,1.9787,1.9786,1.9827,1.9832,1.9847,1.9901,1.9912,1.9935,1.9902,2.0038,2.0041,2.0043,2.0052,2.0056,2.006,0,0,0,0,0,1.96,1.9641,1.9643,1.9655,1.9725,1.9774,1.9783,1.98,1.9788,1.9809,1.9831,1.9831,1.9925,1.9906,1.9918,1.9943,2.0037,2.004,2.0043,2.005,2.0056,2.006,0,0,0,0,0,0,1.9602,1.9647,1.9649,1.9705,1.9736,1.9775,1.9802,1.9805,1.984,1.9838,1.9856,1.9865,1.9915,1.9934,1.9912,1.9995,1.998,1.9985,1.9981,1.9986,1.999,1.9984,1.9905,0,0,0,0,0,1.9609,1.9646,1.9683,1.9728,1.9744,1.977,1.9792,1.9802,1.9835,1.9848,1.9873,1.9904,1.9941,1.9965,2.0,2.0055,2.0063,2.0077,2.0081,2.0085,2.0089,2.0118,2.0125,2.0056,2.0055,2.0055,0,0,1.9623,1.9653,1.9675,1.973,1.9755,1.9792,1.9781,1.9821,1.9848,1.9854,1.9903,1.9922,1.9958,2.001,2.0035,2.0028,2.011,2.0089,2.0091,2.0094,2.0122,2.0129,2.0135,2.0058,2.0057,2.0057,0,0,1.9669,1.9695,1.9736,1.9761,1.9799,1.9816,1.9826,1.9865,1.9878,1.9927,1.9932,1.9964,2.0027,2.0052,2.0073,2.0127,2.0128,2.0138,2.0159,2.0187,2.0193,2.0197,2.0216,2.0222,2.0142,2.0142,2.0142,0,1.9682,1.9739,1.9756,1.9796,1.9819,1.9826,1.9866,1.989,1.9937,1.9953,1.9945,2.0023,2.0048,2.0105,2.0118,2.0135,2.0146,2.0133,2.019,2.0196,2.02,2.0218,2.0225,2.0143,2.0143,2.0143,2.0143,0,1.9753,1.9792,1.982,1.9866,1.9893,1.9932,1.9955,1.9979,1.9987,2.0004,2.0053,2.0083,2.0124,2.0139,2.0146,2.0197,2.0192,2.0187,2.0172,2.0208,2.0224,2.0231,2.0144,2.0144,2.0144,2.0144,0,0,1.9802,1.9857,1.9867,1.9887,1.9929,1.9959,1.9999,2.004,2.006,2.0092,2.0125,2.0178,2.0173,2.0197,2.0207,2.0232,2.0271,2.0224,2.0225,2.0231,2.0328,2.0331,2.0339,2.0272,2.0274,2.0275,2.0325,0,1.9852,1.9924,1.9939,2.0001,2.0036,2.0042,2.0077,2.0106,2.0123,2.0155,2.0173,2.021,2.0202,2.0216,2.0241,2.0261,2.0291,2.0258,2.0302,2.0304,2.0293,2.0348,2.0352,2.0397,2.0332,2.0333,2.0334,0,1.992,1.9954,2.0019,2.0055,2.0071,2.0102,2.0139,2.017,2.0203,2.0213,2.0239,2.0247,2.0287,2.027,2.0325,2.0302,2.0321,2.0334,2.0336,2.034,2.0321,2.0353,2.0412,2.0419,2.0344,2.0343,2.0343,0,1.9949,2.0011,2.0057,2.0075,2.0119,2.014,2.0159,2.019,2.0213,2.0246,2.0261,2.0298,2.0318,2.0346,2.0362,2.0348,2.0416,2.04,2.0425,2.0424,2.0439,2.0438,2.0501,2.0452,2.0452,2.0451,2.0451,0,2.0003,2.0042,2.0071,2.0099,2.0143,2.016,2.0202,2.0221,2.0249,2.0281,2.0288,2.0317,2.0338,2.0369,2.0383,2.0426,2.0435,2.0444,2.0447,2.0443,2.0442,2.0455,2.0453,2.0453,2.0453,2.0452,2.0452,0,2.0042,2.0063,2.0114,2.0151,2.0162,2.0192,2.0223,2.0251,2.0268,2.0307,2.0318,2.0344,2.0382,2.0401,2.0448,2.0457,2.0505,2.0506,2.0494,2.0495,2.0519,2.0516,2.0593,2.0604,2.0547,2.0548,2.0548,0,2.0075,2.0105,2.0146,2.0167,2.0187,2.0222,2.0246,2.0264,2.0287,2.0326,2.0348,2.0387,2.0418,2.0478,2.0501,2.0536,2.0538,2.0563,2.0544,2.0538,2.0538,2.0535,2.0538,2.0566,2.0567,2.0567,2.0567,0,2.0131,2.0139,2.0173,2.021,2.0238,2.0268,2.0298,2.0315,2.0337,2.0364,2.0403,2.0427,2.0475,2.0512,2.0549,2.0568,2.0571,2.0573,2.0581,2.0577,2.0568,2.0572,2.0503,2.0571,2.0571,2.0571,2.057,2.057,2.0167,2.0194,2.0227,2.0264,2.0288,2.0315,2.0342,2.0363,2.0395,2.0436,2.0444,2.0485,2.0515,2.0566,2.0585,2.0617,2.0612,2.0623,2.0625,2.0628,2.0628,2.0564,2.0624,2.0624,2.0624,2.0624,2.0624,0,2.0223,2.0244,2.0278,2.0319,2.0348,2.0349,2.0381,2.0405,2.0441,2.0469,2.05,2.0544,2.058,2.0605,2.0642,2.0662,2.0664,2.0671,2.0669,2.0673,2.0631,2.0621,2.0668,2.0668,2.0668,2.0668,2.0668,2.0668,2.0255,2.03,2.0312,2.0369,2.039,2.043,2.0448,2.0473,2.0496,2.0545,2.0575,2.0591,2.0618,2.0656,2.0689,2.0695,2.0708,2.0714,2.0721,2.0681,2.0676,2.0672,2.0662,2.0717,2.0717,2.076,2.076,2.076]}]]